Home   Weather   Fall River   Past weeks
Flag for USA

Past Weather in Fall River, Massachusetts, USA — Yesterday and Last 2 Weeks

Now
34 °F

Clear.


Feels Like: 34 °F
Forecast: 60 / 35 °F
Wind: No wind

Location: New Bedford Regional Airport

Current Time: Oct 20, 2019 at 5:08:56 am

Latest Report: Oct 20, 2019 at 3:53 am


Visibility: 10 mi

Pressure: 30.05 "Hg

Humidity: 92%

Dew Point: 32 °F

Location of Fall RiverLocation

Past Weather in Fall River — Graph

°F

Fall River Temperature Yesterday

Maximum temperature yesterday: 58 °F (at 3:53 pm)
Minimum temperature yesterday: 38 °F (at 11:53 pm)
Average temperature yesterday: 46 °F

High & Low Weather Summary for the Past Weeks

 TemperatureHumidityPressure
High77 °F (Oct 7, 12:53 pm)96% (Oct 13, 3:57 am)30.44 "Hg (Oct 13, 3:57 am)
Low33 °F (Oct 16, 6:53 am)35% (Oct 15, 2:53 pm)28.84 "Hg (Oct 17, 2:01 am)
Average55 °F79%30.03 "Hg
* Reported Oct 5 3:53 am — Oct 20 3:53 am, Fall River. Weather by CustomWeather, © 2019

Note: Actual official high and low records may vary slightly from our data, if they occured in-between our weather recording intervals... More about our weather records

Advertising

Fall River Weather History for the Previous 24 Hours

Scroll right to see more
 ConditionsComfort  
Time TempWeatherWind HumidityBarometerVisibility
3:53 am
Sun, Oct 20
34 °FClear.No wind92%30.05 "Hg10 mi
2:53 am35 °FFog.No wind88%30.04 "Hg5 mi
1:53 am36 °FClear.No wind92%30.04 "Hg10 mi
12:53 am36 °FClear.No wind92%30.04 "Hg8 mi
11:53 pm
Sat, Oct 19
38 °FClear.No wind90%30.04 "Hg10 mi
10:53 pm40 °FClear.No wind89%30.03 "Hg10 mi
9:53 pm40 °FChilly.N/A89%30.03 "HgN/A
8:53 pm39 °FClear.No wind93%30.03 "Hg10 mi
7:53 pm43 °FClear.No wind86%30.02 "Hg10 mi
6:53 pm47 °FClear.No wind77%30.01 "Hg10 mi
5:53 pm52 °FSunny.6 mph61%29.99 "Hg10 mi
4:53 pm57 °FSunny.6 mph47%29.98 "Hg10 mi
3:53 pm58 °FSunny.9 mph44%29.98 "Hg10 mi
2:53 pm57 °FSunny.8 mph46%29.98 "Hg10 mi
1:53 pm56 °FSunny.12 mph46%29.98 "Hg10 mi
12:53 pm56 °FSunny.8 mph47%30.00 "Hg10 mi
11:53 am54 °FSunny.6 mph51%30.01 "Hg10 mi
10:53 am52 °FSunny.6 mph53%30.01 "Hg10 mi
9:53 am50 °FSunny.8 mph57%30.01 "Hg10 mi
8:53 am47 °FSunny.6 mph66%30.01 "Hg10 mi
7:53 am42 °FSunny.3 mph76%30.00 "Hg10 mi
6:53 am40 °FClear.No wind80%29.98 "Hg10 mi
5:53 am40 °FClear.6 mph80%29.98 "Hg10 mi
Weather by CustomWeather, © 2019

See weather overview